Location: Skalnate Pleso
(49.1889°N, 20.2450°E)
Time: 20:10:11
(UTC+01:00)

BREEZE-M DEB (TANK) - Pass Details

Date: 19 November 2019
Orbit: 398 x 14925 km, 46.0° (Epoch: 14 December)

Event Time Altitude Azimuth Distance (km) Brightness Sun altitude
Exits shadow 04:40:27 39° 174° (S) 687 3.3 -21.6°
Drops below altitude 10° 04:42:36 10° 124° (ESE) 1,443 5.8 -21.3°
Sets 04:44:26 0° 115° (ESE) 2,353 7.3 -21.0°
